Location: *
(47.8307°S, 178.3954°E)
Time: 07:14:39
(UTC+00:00)

SL-8 R/B - Pass Details

Date: 12 August 2024
Orbit: 651 x 661 km, 48.4° (Epoch: 18 September)

Event Time Altitude Azimuth Distance (km) Brightness Sun altitude
Exits shadow 18:32:40 - 258° (WSW) 2,177 5.7 -7.3°
Reaches altitude 10° 18:32:53 10° 258° (WSW) 2,095 5.6 -7.3°
Maximum altitude 18:37:37 56° 335° (NNW) 792 4.1 -6.5°
Drops below altitude 10° 18:42:19 10° 53° (NE) 2,076 7.6 -5.7°
Sets 18:44:41 0° 57° (ENE) 2,982 8.8 -5.4°
